MMM9671 BGGH-BIKF

Flight info

Callsign MMM9671
Flight time 1h 46m
Altitude 39000
Route EVULO1A EVULO DCT DEVNU DCT GOKIK DCT GIRUG GIRUG4K
Aircraft A320/M-SDE3FGHIRWY/LB1

Departure

Time 2026-04-25 13:04
Airport Nuuk International Airport (BGGH)

Arrival

Time 2026-04-25 14:51
Airport Keflavik International Airport (BIKF)
Time Latitude Longitude Altitude Speed Heading
2026-04-25 12:21 64.18468 -51.67850 285 ft 0 kts 151°
2026-04-25 12:38 64.18468 -51.67851 282 ft 0 kts 151°
2026-04-25 12:40 64.18469 -51.67851 282 ft 0 kts 151°
2026-04-25 12:52 64.18481 -51.67866 284 ft 2 kts 151°
2026-04-25 12:52 64.18494 -51.67887 281 ft 2 kts 127°
2026-04-25 12:53 64.18501 -51.67908 281 ft 1 kts 133°
2026-04-25 12:53 64.18512 -51.67935 283 ft 2 kts 161°
2026-04-25 12:53 64.18527 -51.67936 283 ft 2 kts 230°
2026-04-25 12:53 64.18533 -51.67909 281 ft 0 kts 278°
2026-04-25 12:54 64.18533 -51.67908 281 ft 0 kts 278°
2026-04-25 12:58 64.18536 -51.67914 305 ft 1 kts 309°
2026-04-25 12:59 64.18552 -51.67927 304 ft 5 kts 346°
2026-04-25 12:59 64.18596 -51.67921 281 ft 7 kts 11°
2026-04-25 12:59 64.18627 -51.67954 281 ft 9 kts 316°
2026-04-25 12:59 64.18637 -51.68018 285 ft 0 kts 287°
2026-04-25 13:00 64.18639 -51.68036 283 ft 4 kts 282°
2026-04-25 13:00 64.18647 -51.68124 282 ft 13 kts 282°
2026-04-25 13:00 64.18545 -51.68334 284 ft 19 kts 198°
2026-04-25 13:00 64.18405 -51.68435 283 ft 23 kts 198°
2026-04-25 13:01 64.18237 -51.68531 280 ft 25 kts 168°
2026-04-25 13:01 64.18153 -51.68590 280 ft 8 kts 266°
2026-04-25 13:01 64.18165 -51.68608 280 ft 1 kts
2026-04-25 13:01 64.18179 -51.68605 280 ft 0 kts 15°
2026-04-25 13:04 64.18179 -51.68604 280 ft 3 kts 15°
2026-04-25 13:04 64.18465 -51.68395 284 ft 82 kts 18°
2026-04-25 13:04 64.19198 -51.67804 330 ft 135 kts 19°
2026-04-25 13:04 64.20102 -51.67130 1029 ft 135 kts 16°
2026-04-25 13:05 64.21047 -51.67081 1838 ft 141 kts 346°
2026-04-25 13:05 64.21922 -51.68372 2313 ft 170 kts 314°
2026-04-25 13:05 64.22312 -51.71217 2669 ft 211 kts 271°
2026-04-25 13:05 64.21737 -51.74595 3121 ft 249 kts 232°
2026-04-25 13:06 64.20223 -51.76847 3761 ft 276 kts 195°
2026-04-25 13:06 64.18277 -51.77212 4730 ft 283 kts 180°
2026-04-25 13:06 64.16295 -51.77025 5818 ft 288 kts 177°
2026-04-25 13:06 64.14280 -51.76788 6886 ft 292 kts 176°
2026-04-25 13:07 64.12333 -51.75526 7957 ft 294 kts 151°
2026-04-25 13:07 64.10606 -51.72970 8991 ft 297 kts 147°
2026-04-25 13:07 64.08843 -51.70458 10045 ft 301 kts 150°
2026-04-25 13:07 64.07093 -51.67779 10904 ft 308 kts 140°
2026-04-25 13:08 64.05754 -51.63780 11321 ft 330 kts 114°
2026-04-25 13:08 64.05144 -51.58754 12017 ft 338 kts 95°
2026-04-25 13:08 64.05184 -51.53386 12839 ft 341 kts 79°
2026-04-25 13:08 64.05762 -51.48114 13670 ft 345 kts 72°
2026-04-25 13:09 64.06416 -51.42796 14431 ft 351 kts 72°
2026-04-25 13:09 64.07086 -51.37320 15153 ft 357 kts 73°
2026-04-25 13:09 64.07752 -51.31867 15799 ft 364 kts 73°
2026-04-25 13:09 64.08450 -51.26172 16462 ft 370 kts 72°
2026-04-25 13:10 64.09151 -51.20554 17119 ft 376 kts 70°
2026-04-25 13:10 64.10177 -51.15032 17780 ft 379 kts 58°
2026-04-25 13:10 64.11535 -51.09840 18456 ft 383 kts 55°
2026-04-25 13:10 64.12935 -51.04585 18961 ft 389 kts 55°
2026-04-25 13:11 64.14341 -50.99285 19138 ft 390 kts 56°
2026-04-25 13:11 64.15746 -50.93969 19209 ft 390 kts 56°
2026-04-25 13:11 64.17148 -50.88646 19286 ft 390 kts 56°
2026-04-25 13:11 64.18550 -50.83302 19358 ft 391 kts 56°
2026-04-25 13:12 64.19957 -50.77940 19578 ft 395 kts 56°
2026-04-25 13:12 64.21374 -50.72530 20303 ft 397 kts 56°
2026-04-25 13:12 64.22807 -50.67040 20734 ft 408 kts 56°
2026-04-25 13:12 64.23789 -50.63279 20851 ft 420 kts 56°
2026-04-25 13:13 64.25857 -50.55358 21023 ft 443 kts 56°
2026-04-25 13:13 64.27461 -50.49176 21158 ft 458 kts 57°
2026-04-25 13:13 64.29107 -50.42781 21261 ft 470 kts 57°
2026-04-25 13:13 64.30775 -50.36263 21691 ft 475 kts 57°
2026-04-25 13:14 64.32455 -50.29669 22182 ft 478 kts 57°
2026-04-25 13:14 64.34142 -50.23037 22632 ft 481 kts 57°
2026-04-25 13:14 64.35843 -50.16359 23065 ft 484 kts 57°
2026-04-25 13:14 64.37507 -50.09569 23490 ft 489 kts 62°
2026-04-25 13:15 64.38791 -50.02261 23880 ft 493 kts 71°
2026-04-25 13:15 64.39620 -49.94540 24231 ft 497 kts 77°
2026-04-25 13:15 64.40334 -49.86704 24599 ft 500 kts 77°
2026-04-25 13:15 64.41058 -49.78807 24937 ft 504 kts 77°
2026-04-25 13:16 64.41788 -49.70864 25282 ft 506 kts 77°
2026-04-25 13:16 64.42517 -49.62877 25667 ft 509 kts 77°
2026-04-25 13:16 64.43245 -49.54837 26038 ft 512 kts 77°
2026-04-25 13:16 64.43973 -49.46749 26416 ft 514 kts 77°
2026-04-25 13:17 64.44698 -49.38625 26891 ft 514 kts 78°
2026-04-25 13:17 64.45414 -49.30524 27429 ft 513 kts 78°
2026-04-25 13:17 64.46122 -49.22438 27996 ft 512 kts 78°
2026-04-25 13:17 64.46824 -49.14363 28571 ft 511 kts 78°
2026-04-25 13:18 64.47520 -49.06302 29160 ft 509 kts 78°
2026-04-25 13:18 64.48209 -48.98252 29746 ft 508 kts 78°
2026-04-25 13:18 64.48888 -48.90238 30406 ft 505 kts 78°
2026-04-25 13:18 64.49561 -48.82278 31014 ft 501 kts 78°
2026-04-25 13:19 64.50230 -48.74352 31561 ft 500 kts 78°
2026-04-25 13:19 64.50892 -48.66447 32068 ft 499 kts 78°
2026-04-25 13:19 64.51550 -48.58550 32588 ft 498 kts 78°
2026-04-25 13:19 64.51983 -48.53325 32931 ft 497 kts 78°
2026-04-25 13:20 64.52850 -48.42805 33633 ft 496 kts 78°
2026-04-25 13:20 64.53483 -48.35049 34150 ft 495 kts 79°
2026-04-25 13:20 64.54120 -48.27196 34606 ft 494 kts 79°
2026-04-25 13:20 64.54759 -48.19255 35074 ft 493 kts 79°
2026-04-25 13:21 64.55382 -48.11425 35552 ft 492 kts 79°
2026-04-25 13:21 64.55997 -48.03618 36019 ft 491 kts 79°
2026-04-25 13:21 64.56601 -47.95904 36490 ft 490 kts 80°
2026-04-25 13:21 64.57211 -47.88090 36864 ft 491 kts 80°
2026-04-25 13:22 64.57816 -47.80267 37258 ft 491 kts 80°
2026-04-25 13:22 64.58414 -47.72453 37681 ft 491 kts 80°
2026-04-25 13:22 64.59008 -47.64627 38065 ft 490 kts 80°
2026-04-25 13:23 64.60181 -47.49066 38940 ft 487 kts 80°
2026-04-25 13:23 64.60761 -47.41286 39078 ft 487 kts 80°
2026-04-25 13:23 64.61339 -47.33477 39124 ft 493 kts 80°
2026-04-25 13:24 64.62497 -47.17651 39121 ft 497 kts 80°
2026-04-25 13:24 64.63649 -47.01763 39117 ft 497 kts 80°
2026-04-25 13:25 64.64790 -46.85693 39120 ft 500 kts 81°
2026-04-25 13:25 64.65902 -46.69779 39119 ft 500 kts 81°
2026-04-25 13:26 64.66999 -46.53723 39125 ft 501 kts 81°
2026-04-25 13:26 64.68082 -46.37647 39131 ft 501 kts 81°
2026-04-25 13:27 64.69156 -46.21560 39135 ft 501 kts 81°
2026-04-25 13:27 64.70204 -46.05496 39145 ft 500 kts 81°
2026-04-25 13:28 64.71229 -45.89445 39150 ft 499 kts 81°
2026-04-25 13:28 64.72241 -45.73385 39148 ft 498 kts 81°
2026-04-25 13:29 64.73231 -45.57346 39152 ft 498 kts 82°
2026-04-25 13:29 64.74198 -45.41294 39142 ft 498 kts 82°
2026-04-25 13:30 64.75636 -45.17202 39143 ft 498 kts 82°
2026-04-25 13:31 64.77018 -44.93080 39122 ft 498 kts 83°
2026-04-25 13:31 64.77921 -44.77013 39136 ft 496 kts 83°
2026-04-25 13:32 64.78814 -44.60990 39133 ft 495 kts 83°
2026-04-25 13:32 64.79681 -44.44987 39131 ft 494 kts 83°
2026-04-25 13:33 64.80521 -44.28994 39128 ft 494 kts 83°
2026-04-25 13:33 64.81344 -44.13012 39116 ft 493 kts 83°
2026-04-25 13:34 64.82152 -43.97022 39125 ft 493 kts 84°
2026-04-25 13:34 64.82944 -43.81130 39099 ft 493 kts 84°
2026-04-25 13:35 64.83726 -43.65109 39097 ft 494 kts 84°
2026-04-25 13:35 64.84484 -43.49069 39091 ft 494 kts 84°
2026-04-25 13:36 64.85218 -43.32915 39065 ft 494 kts 84°
2026-04-25 13:36 64.85943 -43.16965 39071 ft 494 kts 84°
2026-04-25 13:37 64.86661 -43.00904 39065 ft 494 kts 84°
2026-04-25 13:37 64.87350 -42.84817 39067 ft 494 kts 85°
2026-04-25 13:38 64.88017 -42.68715 39048 ft 495 kts 85°
2026-04-25 13:38 64.88677 -42.52588 39054 ft 495 kts 85°
2026-04-25 13:39 64.89327 -42.36461 39049 ft 495 kts 85°
2026-04-25 13:39 64.89947 -42.20312 39031 ft 495 kts 86°
2026-04-25 13:40 64.90550 -42.04180 39066 ft 494 kts 86°
2026-04-25 13:40 64.91138 -41.88028 39048 ft 495 kts 86°
2026-04-25 13:41 64.91702 -41.71835 39081 ft 497 kts 86°
2026-04-25 13:41 64.92249 -41.55592 39081 ft 498 kts 86°
2026-04-25 13:42 64.92791 -41.39308 39083 ft 498 kts 86°
2026-04-25 13:42 64.93311 -41.23013 39094 ft 499 kts 87°
2026-04-25 13:43 64.93813 -41.06701 39099 ft 499 kts 87°
2026-04-25 13:43 64.94300 -40.90372 39104 ft 499 kts 87°
2026-04-25 13:44 64.94769 -40.74078 39129 ft 497 kts 88°
2026-04-25 13:44 64.95223 -40.57824 39146 ft 496 kts 88°
2026-04-25 13:45 64.95644 -40.41599 39146 ft 495 kts 88°
2026-04-25 13:45 64.95983 -40.28134 39144 ft 495 kts 88°
2026-04-25 13:46 64.96377 -40.11927 39150 ft 494 kts 88°
2026-04-25 13:46 64.96759 -39.95734 39155 ft 494 kts 88°
2026-04-25 13:47 64.97126 -39.79522 39144 ft 495 kts 89°
2026-04-25 13:47 64.97466 -39.63295 39140 ft 495 kts 89°
2026-04-25 13:48 64.97793 -39.47056 39130 ft 495 kts 89°
2026-04-25 13:48 64.98106 -39.30834 39142 ft 494 kts 89°
2026-04-25 13:49 64.98394 -39.14621 39146 ft 494 kts 89°
2026-04-25 13:49 64.98666 -38.98415 39153 ft 493 kts 89°
2026-04-25 13:50 64.98920 -38.82215 39152 ft 493 kts 90°
2026-04-25 13:50 64.99159 -38.66009 39150 ft 494 kts 90°
2026-04-25 13:51 64.99381 -38.49793 39146 ft 494 kts 90°
2026-04-25 13:51 64.99580 -38.33565 39151 ft 494 kts 90°
2026-04-25 13:52 64.99766 -38.17326 39155 ft 494 kts 90°
2026-04-25 13:52 64.99937 -38.01099 39145 ft 493 kts 90°
2026-04-25 13:53 65.00082 -37.84895 39155 ft 493 kts 91°
2026-04-25 13:53 65.00203 -37.68694 39151 ft 494 kts 91°
2026-04-25 13:54 65.00317 -37.52446 39146 ft 494 kts 91°
2026-04-25 13:54 65.00417 -37.36318 39145 ft 494 kts 91°
2026-04-25 13:55 65.00497 -37.20081 39146 ft 494 kts 91°
2026-04-25 13:55 65.00557 -37.03831 39147 ft 494 kts 91°
2026-04-25 13:56 65.00608 -36.87584 39152 ft 494 kts 91°
2026-04-25 13:56 65.00644 -36.71320 39127 ft 494 kts 92°
2026-04-25 13:57 65.00643 -36.55080 39142 ft 494 kts 92°
2026-04-25 13:57 65.00626 -36.38860 39147 ft 493 kts 92°
2026-04-25 13:58 65.00602 -36.22637 39149 ft 493 kts 92°
2026-04-25 13:58 65.00550 -36.06437 39149 ft 493 kts 92°
2026-04-25 13:59 65.00475 -35.90345 39149 ft 493 kts 93°
2026-04-25 13:59 65.00215 -35.74159 39149 ft 492 kts 95°
2026-04-25 14:00 64.99814 -35.60651 39147 ft 492 kts 97°
2026-04-25 14:00 64.99181 -35.41946 39123 ft 492 kts 96°
2026-04-25 14:01 64.98674 -35.25832 39139 ft 491 kts 96°
2026-04-25 14:01 64.98181 -35.09752 39132 ft 491 kts 96°
2026-04-25 14:02 64.97673 -34.93683 39140 ft 490 kts 96°
2026-04-25 14:02 64.97138 -34.77628 39144 ft 491 kts 97°
2026-04-25 14:03 64.96584 -34.61571 39134 ft 491 kts 97°
2026-04-25 14:03 64.96004 -34.45503 39134 ft 491 kts 97°
2026-04-25 14:04 64.95410 -34.29434 39130 ft 491 kts 97°
2026-04-25 14:04 64.94807 -34.13487 39108 ft 491 kts 97°
2026-04-25 14:05 64.94177 -33.97451 39121 ft 491 kts 98°
2026-04-25 14:05 64.93536 -33.81441 39140 ft 490 kts 98°
2026-04-25 14:06 64.92882 -33.65453 39118 ft 490 kts 98°
2026-04-25 14:06 64.92203 -33.49466 39117 ft 490 kts 98°
2026-04-25 14:07 64.91506 -33.33488 39126 ft 490 kts 98°
2026-04-25 14:07 64.90798 -33.17504 39117 ft 490 kts 98°
2026-04-25 14:08 64.90067 -33.01537 39119 ft 490 kts 99°
2026-04-25 14:08 64.89319 -32.85579 39113 ft 490 kts 99°
2026-04-25 14:09 64.88556 -32.69656 39124 ft 489 kts 99°
2026-04-25 14:09 64.87787 -32.53825 39106 ft 486 kts 99°
2026-04-25 14:10 64.86998 -32.38025 39107 ft 486 kts 99°
2026-04-25 14:10 64.86191 -32.22244 39100 ft 486 kts 99°
2026-04-25 14:11 64.85377 -32.06580 39100 ft 486 kts 100°
2026-04-25 14:11 64.84540 -31.90824 39102 ft 486 kts 100°
2026-04-25 14:12 64.83683 -31.75076 39108 ft 486 kts 100°
2026-04-25 14:12 64.82807 -31.59353 39087 ft 485 kts 100°
2026-04-25 14:13 64.81917 -31.43647 39104 ft 485 kts 100°
2026-04-25 14:13 64.81012 -31.27965 39111 ft 485 kts 100°
2026-04-25 14:14 64.80099 -31.12303 39114 ft 484 kts 100°
2026-04-25 14:14 64.79170 -30.96660 39116 ft 484 kts 101°
2026-04-25 14:15 64.78211 -30.81032 39116 ft 484 kts 101°
2026-04-25 14:15 64.77239 -30.65426 39116 ft 484 kts 101°
2026-04-25 14:16 64.76258 -30.49817 39114 ft 484 kts 101°
2026-04-25 14:16 64.75260 -30.34199 39109 ft 485 kts 101°
2026-04-25 14:17 64.74252 -30.18685 39110 ft 486 kts 101°
2026-04-25 14:17 64.73215 -30.03056 39114 ft 486 kts 102°
2026-04-25 14:18 64.72157 -29.87450 39114 ft 486 kts 102°
2026-04-25 14:18 64.71092 -29.71837 39116 ft 486 kts 102°
2026-04-25 14:19 64.70006 -29.56241 39122 ft 486 kts 102°
2026-04-25 14:19 64.68902 -29.40643 39112 ft 487 kts 102°
2026-04-25 14:20 64.67777 -29.25035 39113 ft 487 kts 102°
2026-04-25 14:20 64.66635 -29.09427 39103 ft 487 kts 102°
2026-04-25 14:21 64.65482 -28.93859 39128 ft 486 kts 102°
2026-04-25 14:21 64.64314 -28.78322 39130 ft 485 kts 102°
2026-04-25 14:22 64.63131 -28.62834 39137 ft 485 kts 103°
2026-04-25 14:22 64.61933 -28.47370 39134 ft 485 kts 103°
2026-04-25 14:23 64.60722 -28.32008 39128 ft 485 kts 103°
2026-04-25 14:23 64.59496 -28.16542 39132 ft 486 kts 103°
2026-04-25 14:24 64.58251 -28.01086 39134 ft 486 kts 103°
2026-04-25 14:24 64.56981 -27.85650 39117 ft 485 kts 103°
2026-04-25 14:25 64.56126 -27.75348 39131 ft 485 kts 103°
2026-04-25 14:25 64.54405 -27.54883 39144 ft 484 kts 103°
2026-04-25 14:26 64.53095 -27.39536 39143 ft 484 kts 104°
2026-04-25 14:26 64.51766 -27.24191 39144 ft 485 kts 104°
2026-04-25 14:27 64.50404 -27.08861 39148 ft 484 kts 106°
2026-04-25 14:27 64.48173 -26.94223 39147 ft 481 kts 115°
2026-04-25 14:28 64.45693 -26.79826 39149 ft 481 kts 115°
2026-04-25 14:28 64.43224 -26.65557 39142 ft 480 kts 115°
2026-04-25 14:29 64.40727 -26.51241 39149 ft 479 kts 115°
2026-04-25 14:29 64.38217 -26.36975 39159 ft 479 kts 115°
2026-04-25 14:30 64.35700 -26.22717 39156 ft 480 kts 114°
2026-04-25 14:30 64.33229 -26.08512 38889 ft 472 kts 116°
2026-04-25 14:30 64.31933 -26.01553 38050 ft 475 kts 116°
2026-04-25 14:31 64.30645 -25.94562 37349 ft 475 kts 116°
2026-04-25 14:31 64.29365 -25.87530 36582 ft 476 kts 115°
2026-04-25 14:31 64.28094 -25.80473 35797 ft 478 kts 115°
2026-04-25 14:31 64.26823 -25.73394 34901 ft 481 kts 115°
2026-04-25 14:32 64.25546 -25.66304 34278 ft 478 kts 115°
2026-04-25 14:32 64.24267 -25.59248 33260 ft 476 kts 115°
2026-04-25 14:32 64.22984 -25.52229 31742 ft 476 kts 116°
2026-04-25 14:32 64.21695 -25.45239 30721 ft 473 kts 116°
2026-04-25 14:33 64.20406 -25.38298 29431 ft 473 kts 116°
2026-04-25 14:33 64.19112 -25.31368 28131 ft 472 kts 116°
2026-04-25 14:33 64.17837 -25.24464 26832 ft 467 kts 113°
2026-04-25 14:33 64.17290 -25.17022 25539 ft 472 kts 100°
2026-04-25 14:34 64.16499 -25.10080 25499 ft 445 kts 111°
2026-04-25 14:34 64.15256 -25.03625 24353 ft 454 kts 121°
2026-04-25 14:34 64.13635 -24.97401 23138 ft 457 kts 125°
2026-04-25 14:34 64.11945 -24.91213 21813 ft 460 kts 122°
2026-04-25 14:35 64.10589 -24.84550 20553 ft 465 kts 110°
2026-04-25 14:35 64.09901 -24.77312 19338 ft 467 kts 100°
2026-04-25 14:35 64.09439 -24.69975 18348 ft 463 kts 98°
2026-04-25 14:35 64.09032 -24.62731 17340 ft 455 kts 98°
2026-04-25 14:36 64.08628 -24.55613 16356 ft 448 kts 98°
2026-04-25 14:36 64.08199 -24.48624 15407 ft 441 kts 99°
2026-04-25 14:36 64.07742 -24.41747 14511 ft 434 kts 100°
2026-04-25 14:36 64.07267 -24.34982 13614 ft 429 kts 100°
2026-04-25 14:37 64.06782 -24.28304 12700 ft 424 kts 101°
2026-04-25 14:37 64.06448 -24.23780 12260 ft 417 kts 101°
2026-04-25 14:39 64.06197 -24.20475 12304 ft 401 kts 101°
2026-04-25 14:39 64.05741 -24.14376 12173 ft 379 kts 101°
2026-04-25 14:39 64.05319 -24.08601 12043 ft 359 kts 101°
2026-04-25 14:40 64.04919 -24.03103 11915 ft 343 kts 101°
2026-04-25 14:40 64.04535 -23.97834 11786 ft 330 kts 101°
2026-04-25 14:40 64.04164 -23.92773 11632 ft 318 kts 101°
2026-04-25 14:40 64.03923 -23.89489 11447 ft 315 kts 101°
2026-04-25 14:41 64.03557 -23.84590 11097 ft 313 kts 101°
2026-04-25 14:41 64.03190 -23.79710 10731 ft 311 kts 101°
2026-04-25 14:41 64.02825 -23.74868 10378 ft 309 kts 101°
2026-04-25 14:41 64.02462 -23.70067 10092 ft 305 kts 101°
2026-04-25 14:42 64.02100 -23.65279 9475 ft 312 kts 101°
2026-04-25 14:42 64.01847 -23.61958 9198 ft 324 kts 101°
2026-04-25 14:42 64.01288 -23.54743 8646 ft 360 kts 101°
2026-04-25 14:42 64.00858 -23.49173 8324 ft 349 kts 101°
2026-04-25 14:43 64.00701 -23.43810 8193 ft 333 kts 85°
2026-04-25 14:43 64.01015 -23.38692 8063 ft 319 kts 81°
2026-04-25 14:43 64.01249 -23.33762 7867 ft 308 kts 89°
2026-04-25 14:43 64.01127 -23.28925 7341 ft 308 kts 104°
2026-04-25 14:44 64.00333 -23.24386 6667 ft 311 kts 126°
2026-04-25 14:44 63.98815 -23.20956 6031 ft 306 kts 150°
2026-04-25 14:44 63.97215 -23.17776 5489 ft 310 kts 129°
2026-04-25 14:44 63.96465 -23.13209 5111 ft 311 kts 98°
2026-04-25 14:45 63.96646 -23.08419 4835 ft 306 kts 79°
2026-04-25 14:45 63.97172 -23.03759 4180 ft 308 kts 81°
2026-04-25 14:45 63.98018 -22.99217 3406 ft 322 kts 58°
2026-04-25 14:45 63.99607 -22.95534 2629 ft 328 kts 51°
2026-04-25 14:46 64.00603 -22.91165 2378 ft 300 kts 84°
2026-04-25 14:46 64.00493 -22.86705 2232 ft 271 kts 112°
2026-04-25 14:46 63.99466 -22.83574 2324 ft 238 kts 149°
2026-04-25 14:46 63.97921 -22.82927 2181 ft 228 kts 191°
2026-04-25 14:47 63.96662 -22.84999 2064 ft 232 kts 234°
2026-04-25 14:47 63.96407 -22.87330 2081 ft 233 kts 266°
2026-04-25 14:47 63.97521 -22.91433 1908 ft 237 kts 332°
2026-04-25 14:47 63.99064 -22.91937 1916 ft 218 kts 19°
2026-04-25 14:48 64.00207 -22.90147 1813 ft 190 kts 69°
2026-04-25 14:48 64.00388 -22.87475 1741 ft 163 kts 113°
2026-04-25 14:48 63.99834 -22.85390 1650 ft 152 kts 133°
2026-04-25 14:48 63.99305 -22.83264 1615 ft 157 kts 120°
2026-04-25 14:49 63.98809 -22.81084 1511 ft 154 kts 128°
2026-04-25 14:49 63.98375 -22.78836 1398 ft 160 kts 107°
2026-04-25 14:49 63.98406 -22.76243 1247 ft 166 kts 89°
2026-04-25 14:49 63.98521 -22.73718 1007 ft 153 kts 96°
2026-04-25 14:50 63.98518 -22.71513 764 ft 130 kts 100°
2026-04-25 14:50 63.98507 -22.69589 553 ft 117 kts 99°
2026-04-25 14:50 63.98511 -22.67741 325 ft 116 kts 99°
2026-04-25 14:50 63.98512 -22.65929 224 ft 116 kts 98°
2026-04-25 14:51 63.98511 -22.64124 150 ft 108 kts 99°
2026-04-25 14:51 63.98502 -22.62626 143 ft 78 kts 92°
2026-04-25 14:51 63.98506 -22.61740 156 ft 44 kts 80°
2026-04-25 14:51 63.98579 -22.61266 161 ft 12 kts 55°
2026-04-25 14:52 63.98586 -22.61244 161 ft 0 kts 55°
2026-04-25 14:52 63.98586 -22.61245 161 ft 0 kts 55°
2026-04-25 14:52 63.98587 -22.61242 161 ft 1 kts 55°
2026-04-25 14:53 63.98604 -22.61184 162 ft 6 kts 53°
2026-04-25 14:53 63.98661 -22.61117 163 ft 13 kts
2026-04-25 14:53 63.98786 -22.61124 162 ft 18 kts 358°
2026-04-25 14:53 63.98923 -22.61129 161 ft 22 kts 359°
2026-04-25 14:54 63.99084 -22.61126 161 ft 23 kts
2026-04-25 14:54 63.99124 -22.61125 160 ft 2 kts
2026-04-25 14:54 63.99159 -22.61155 159 ft 9 kts 319°
2026-04-25 14:54 63.99175 -22.61345 154 ft 16 kts 276°
2026-04-25 14:55 63.99282 -22.61429 148 ft 20 kts
2026-04-25 14:55 63.99416 -22.61429 143 ft 6 kts 358°
2026-04-25 14:55 63.99454 -22.61446 142 ft 0 kts 335°
2026-04-25 14:55 63.99459 -22.61457 142 ft 2 kts 317°
2026-04-25 14:56 63.99472 -22.61513 142 ft 6 kts 292°
2026-04-25 14:56 63.99473 -22.61655 142 ft 15 kts 263°
2026-04-25 14:56 63.99471 -22.61791 142 ft 0 kts 270°
2026-04-25 14:56 63.99471 -22.61794 142 ft 3 kts 270°
2026-04-25 14:57 63.99466 -22.62002 142 ft 17 kts 258°
2026-04-25 14:57 63.99375 -22.61991 142 ft 15 kts 166°
2026-04-25 14:57 63.99315 -22.61989 142 ft 5 kts 180°
2026-04-25 14:57 63.99284 -22.61947 142 ft 6 kts 91°
2026-04-25 14:58 63.99286 -22.61830 142 ft 9 kts 89°